[[{"header":{"parameterUnit":"m.s-1","parameterCategory":1,"la1":30.2991,"la2":30.254,"lo1":-89.0895,"lo2":-89.0444,"dy":0.0017,"dx":0.0017,"nx":28,"ny":28,"refTime":"2025-11-28T03:00:00:Z","depth":0,"parameterNumber":2,"parameterNumberName":"U-component_of_WINDS"},"data":[0,0,0,0,0,0,0,0,0,0,0,0,0,0,0,0,0,0,0,0,0,0,0,0,0,0,0,0,0,0,0,0,0,0,0,0,0,0,0,0,0,0,0,0,0,0,0,0,0,0,0,0,0,0,0,0,0,0,-5.4643,-5.4643,0,-5.4675,-5.4676,-5.4676,-5.4506,-5.4501,-5.4496,-5.4491,-5.4525,-5.453,-5.4536,0,0,0,0,0,0,0,0,0,0,0,0,0,-5.4432,-5.4436,-5.4643,-5.4643,-5.4644,-5.4675,-5.4676,-5.4676,-5.4506,-5.45,-5.4494,-5.4489,-5.4523,-5.453,-5.4536,0,0,0,0,0,0,0,0,0,0,0,0,0,-5.45,-5.4438,-5.4643,-5.4563,-5.4556,-5.4675,-5.4676,-5.4676,-5.4508,-5.45,-5.4493,-5.4486,-5.4521,-5.4529,-5.4537,-5.4735,0,0,-5.4562,-5.4566,0,0,0,0,0,0,0,0,-5.4496,-5.4508,-5.4574,-5.4568,-5.4561,-5.4579,-5.4613,-5.4696,-5.4509,-5.4526,-5.4491,-5.4482,-5.4549,-5.4554,-5.4576,-5.4736,-5.4738,-5.4563,-5.4568,-5.4571,-5.4574,0,0,0,0,0,0,0,-5.4492,-5.4505,-5.4655,-5.4575,-5.4567,-5.4524,-5.4526,-5.4628,-5.4578,-5.4524,-5.4512,-5.4518,-5.4544,-5.4569,-5.4576,-5.4738,-5.4563,-5.457,-5.4575,-5.4578,-5.5058,-5.5065,0,0,0,0,0,0,-5.4498,-5.4503,-5.4654,-5.4656,-5.451,-5.4534,-5.4536,-5.4581,-5.4577,-5.4569,-5.4524,-5.451,-5.4559,-5.4567,-5.4577,-5.4805,-5.4571,-5.4579,-5.4584,-5.505,-5.506,-5.5068,0,0,0,0,0,0,-5.4494,-5.4513,-5.4653,-5.4576,-5.4591,-5.4546,-5.4597,-5.4585,-5.461,-5.4577,-5.4567,-5.4559,-5.4553,-5.4565,-5.4696,-5.4803,-5.4583,-5.459,-5.5041,-5.5053,-5.5064,-5.5265,0,0,0,0,0,0,-5.4489,-5.4513,-5.4588,-5.4579,-5.4596,-5.4773,-5.4604,-5.4591,-5.4625,-5.4606,-5.4607,-5.46,-5.4548,-5.4684,-5.4704,-5.4811,-5.4596,-5.5031,-5.5046,-5.506,-5.5248,-5.5282,-5.5311,0,0,0,0,0,-5.4482,-5.4644,-5.4593,-5.4612,-5.4689,-5.478,-5.4789,-5.4726,-5.4634,-5.4709,-5.4687,-5.46,-5.4789,-5.4699,-5.472,-5.4831,-5.5024,-5.5042,-5.5059,-5.5234,-5.5276,-5.531,0,0,0,0,0,0,-5.4668,-5.4642,-5.4584,-5.4749,-5.4768,-5.4751,-5.4843,-5.4772,-5.4817,-5.4798,-5.4718,-5.472,-5.4864,-5.486,-5.4761,-5.502,-5.489,-5.4913,-5.5017,-5.5055,-5.5086,-5.5083,-5.4603,0,0,0,0,0,-5.4728,-5.4804,-5.4777,-5.4925,-5.4937,-5.4889,-5.4927,-5.4876,-5.4892,-5.4899,-5.4887,-5.4906,-5.4969,-5.5012,-5.5069,-5.5248,-5.5244,-5.5334,-5.5365,-5.5391,-5.5411,-5.5501,-5.554,-5.5126,-5.5126,-5.5126,0,0,-5.4854,-5.4849,-5.4902,-5.4962,-5.4971,-5.505,-5.4897,-5.4989,-5.5046,-5.4913,-5.5035,-5.5027,-5.5042,-5.5197,-5.5265,-5.5199,-5.5524,-5.5414,-5.5434,-5.544,-5.5524,-5.5563,-5.5598,-5.5138,-5.5136,-5.5134,0,0,-5.5121,-5.5127,-5.5248,-5.526,-5.5274,-5.524,-5.527,-5.5263,-5.5252,-5.5373,-5.5274,-5.5342,-5.5453,-5.5467,-5.5489,-5.576,-5.568,-5.5781,-5.5943,-5.6032,-5.6065,-5.6093,-5.6187,-5.6222,-5.5801,-5.5802,-5.5802,0,-5.5275,-5.5391,-5.532,-5.5417,-5.5446,-5.5328,-5.545,-5.5464,-5.5497,-5.5519,-5.5445,-5.558,-5.5583,-5.5737,-5.5803,-5.5826,-5.5855,-5.5779,-5.6066,-5.6094,-5.6119,-5.6207,-5.6243,-5.5813,-5.5812,-5.5811,-5.581,0,-5.5577,-5.5659,-5.5756,-5.5788,-5.5828,-5.5938,-5.5882,-5.5931,-5.5877,-5.5851,-5.5974,-5.5973,-5.6025,-5.6058,-5.6008,-5.6206,-5.6164,-5.608,-5.5947,-5.6172,-5.6253,-5.6287,-5.583,-5.5826,-5.5822,-5.582,0,0,-5.5964,-5.5954,-5.5991,-5.6002,-5.6008,-5.607,-5.6173,-5.6224,-5.6265,-5.6292,-5.6374,-5.647,-5.6391,-5.6416,-5.6366,-5.6445,-5.6655,-5.635,-5.6349,-5.6404,-5.6869,-5.693,-5.6971,-5.6604,-5.661,-5.6615,-5.6867,0,-5.6223,-5.6397,-5.6336,-5.6514,-5.6586,-5.6475,-5.6564,-5.6577,-5.6556,-5.6614,-5.6589,-5.6657,-5.655,-5.6564,-5.6637,-5.6614,-5.6747,-5.6596,-5.6678,-5.6681,-5.6674,-5.7014,-5.7079,-5.7317,-5.6898,-5.6904,-5.6908,0,-5.6549,-5.6586,-5.6771,-5.6761,-5.6789,-5.6871,-5.691,-5.6968,-5.698,-5.6958,-5.6985,-5.6917,-5.7015,-5.6885,-5.7019,-5.6917,-5.6947,-5.6941,-5.6949,-5.6952,-5.6806,-5.7023,-5.7392,-5.7427,-5.6958,-5.6954,-5.695,0,-5.6807,-5.6904,-5.7026,-5.704,-5.7033,-5.7092,-5.7092,-5.7096,-5.713,-5.7165,-5.7185,-5.7232,-5.7257,-5.7295,-5.724,-5.7151,-5.7381,-5.7247,-5.7364,-5.7365,-5.7415,-5.7412,-5.7791,-5.744,-5.744,-5.7439,-5.7438,0,-5.7101,-5.7218,-5.7141,-5.7216,-5.7343,-5.7271,-5.7398,-5.7385,-5.739,-5.7459,-5.7367,-5.7434,-5.736,-5.742,-5.7378,-5.7493,-5.7506,-5.749,-5.7477,-5.7497,-5.7498,-5.7513,-5.7494,-5.7449,-5.7446,-5.7445,-5.7443,0,-5.7411,-5.7365,-5.7489,-5.7472,-5.747,-5.7564,-5.7548,-5.7616,-5.7587,-5.7676,-5.7693,-5.7648,-5.7713,-5.7663,-5.7729,-5.77,-5.7851,-5.7817,-5.7847,-5.7836,-5.7955,-5.7943,-5.8354,-5.8403,-5.8024,-5.8028,-5.8031,0,-5.76,-5.7687,-5.7678,-5.7717,-5.7722,-5.7788,-5.782,-5.7753,-5.779,-5.7809,-5.7874,-5.7932,-5.7973,-5.8083,-5.8056,-5.8105,-5.8068,-5.8209,-5.8075,-5.8091,-5.8066,-5.806,-5.8067,-5.8235,-5.824,-5.8243,-5.8246,0,-5.794,-5.7912,-5.7962,-5.8005,-5.8046,-5.8077,-5.81,-5.8137,-5.8068,-5.8115,-5.818,-5.8213,-5.8278,-5.8335,-5.8374,-5.8372,-5.8298,-5.8289,-5.8318,-5.8337,-5.835,-5.8341,-5.7917,-5.8279,-5.8276,-5.8274,-5.8272,-5.8271,-5.8192,-5.8262,-5.8266,-5.8325,-5.8334,-5.8357,-5.8419,-5.8397,-5.845,-5.8497,-5.8454,-5.8532,-5.8539,-5.8583,-5.8591,-5.865,-5.8592,-5.8635,-5.8645,-5.8656,-5.8671,-5.8343,-5.8657,-5.8656,-5.8655,-5.8654,-5.8654,0,-5.8523,-5.852,-5.8575,-5.8608,-5.8654,-5.858,-5.8601,-5.8644,-5.8713,-5.8726,-5.8768,-5.8841,-5.8896,-5.8873,-5.8921,-5.8972,-5.8939,-5.8987,-5.8981,-5.8981,-5.8722,-5.8691,-5.9013,-5.9013,-5.9012,-5.9012,-5.9012,-5.9012,-5.8701,-5.8815,-5.8787,-5.8904,-5.8899,-5.8974,-5.8992,-5.9012,-5.9021,-5.9107,-5.9151,-5.9135,-5.9133,-5.9179,-5.9226,-5.9217,-5.9238,-5.9298,-5.9277,-5.9035,-5.9,-5.8966,-5.8935,-5.9303,-5.9304,-5.953,-5.9532,-5.9533]},{"header":{"parameterUnit":"m.s-1","parameterCategory":1,"la1":30.2991,"la2":30.254,"lo1":-89.0895,"lo2":-89.0444,"dy":0.0017,"dx":0.0017,"nx":28,"ny":28,"refTime":"2025-11-28T03:00:00:Z","depth":0,"parameterNumber":3,"parameterNumberName":"V-component_of_WINDS"},"data":[0,0,0,0,0,0,0,0,0,0,0,0,0,0,0,0,0,0,0,0,0,0,0,0,0,0,0,0,0,0,0,0,0,0,0,0,0,0,0,0,0,0,0,0,0,0,0,0,0,0,0,0,0,0,0,0,0,0,-3.655,-3.655,0,-3.6626,-3.6627,-3.6628,-3.6594,-3.6592,-3.659,-3.6588,-3.6665,-3.6668,-3.6672,0,0,0,0,0,0,0,0,0,0,0,0,0,-3.637,-3.6373,-3.6549,-3.655,-3.6551,-3.6626,-3.6627,-3.6628,-3.6594,-3.6592,-3.659,-3.6588,-3.6663,-3.6668,-3.6672,0,0,0,0,0,0,0,0,0,0,0,0,0,-3.6447,-3.6374,-3.6549,-3.6544,-3.6544,-3.6626,-3.6627,-3.6628,-3.6595,-3.6592,-3.6589,-3.6586,-3.6662,-3.6667,-3.6673,-3.6764,0,0,-3.669,-3.6693,0,0,0,0,0,0,0,0,-3.6443,-3.6454,-3.6543,-3.6544,-3.6545,-3.6598,-3.6592,-3.6674,-3.6595,-3.6575,-3.6588,-3.6585,-3.6644,-3.6651,-3.6672,-3.6768,-3.6771,-3.6691,-3.6694,-3.6697,-3.6698,0,0,0,0,0,0,0,-3.6438,-3.645,-3.658,-3.6545,-3.6545,-3.6536,-3.6544,-3.6607,-3.6625,-3.6577,-3.6575,-3.6584,-3.6644,-3.6666,-3.6673,-3.6772,-3.6691,-3.6696,-3.6699,-3.6701,-3.6944,-3.6946,0,0,0,0,0,0,-3.6433,-3.6446,-3.6577,-3.6582,-3.6486,-3.6541,-3.655,-3.6583,-3.6624,-3.6627,-3.6587,-3.6582,-3.6658,-3.6667,-3.6676,-3.6783,-3.6697,-3.6702,-3.6705,-3.6941,-3.6944,-3.6948,0,0,0,0,0,0,-3.6429,-3.6445,-3.6574,-3.6513,-3.6529,-3.6547,-3.6585,-3.6586,-3.6609,-3.6631,-3.6634,-3.6606,-3.6656,-3.6668,-3.6742,-3.6785,-3.6704,-3.671,-3.6937,-3.6942,-3.6946,-3.7,0,0,0,0,0,0,-3.6424,-3.6444,-3.648,-3.6515,-3.6533,-3.664,-3.6588,-3.659,-3.6619,-3.6614,-3.6651,-3.6654,-3.6655,-3.6734,-3.6748,-3.6792,-3.6714,-3.6933,-3.6939,-3.6944,-3.6994,-3.7006,-3.7016,0,0,0,0,0,-3.6418,-3.6492,-3.6482,-3.6498,-3.6578,-3.6643,-3.6653,-3.6654,-3.6623,-3.6658,-3.6672,-3.6653,-3.6779,-3.6742,-3.6757,-3.6803,-3.693,-3.6937,-3.6944,-3.699,-3.7004,-3.7015,0,0,0,0,0,0,-3.6462,-3.6497,-3.6486,-3.6574,-3.6606,-3.6637,-3.6682,-3.6669,-3.671,-3.6704,-3.6702,-3.671,-3.6786,-3.6802,-3.676,-3.6892,-3.685,-3.686,-3.6879,-3.6892,-3.6903,-3.6897,-3.6719,0,0,0,0,0,-3.6482,-3.6533,-3.656,-3.6635,-3.6652,-3.6664,-3.6692,-3.669,-3.6722,-3.6736,-3.6755,-3.6787,-3.6833,-3.6864,-3.6908,-3.6997,-3.7003,-3.7036,-3.7047,-3.7055,-3.7064,-3.7109,-3.7123,-3.697,-3.697,-3.697,0,0,-3.6523,-3.6549,-3.6581,-3.6644,-3.6669,-3.672,-3.6676,-3.6732,-3.6769,-3.6744,-3.6815,-3.683,-3.6865,-3.6946,-3.6983,-3.6962,-3.7107,-3.7064,-3.7071,-3.7074,-3.7117,-3.7132,-3.7145,-3.6975,-3.6974,-3.6973,0,0,-3.6625,-3.6651,-3.6714,-3.674,-3.6777,-3.6785,-3.68,-3.6833,-3.6842,-3.6913,-3.6895,-3.6938,-3.7019,-3.7044,-3.7067,-3.7176,-3.7158,-3.719,-3.7245,-3.7289,-3.7301,-3.7312,-3.7348,-3.7362,-3.7199,-3.7199,-3.7199,0,-3.6672,-3.6749,-3.6749,-3.6806,-3.6833,-3.6813,-3.6876,-3.69,-3.695,-3.6969,-3.6945,-3.7044,-3.7066,-3.7151,-3.7178,-3.7198,-3.7213,-3.7185,-3.73,-3.731,-3.732,-3.7355,-3.7369,-3.7202,-3.7202,-3.7201,-3.7201,0,-3.6803,-3.6857,-3.6904,-3.6952,-3.6985,-3.7045,-3.7052,-3.7085,-3.7079,-3.7089,-3.7159,-3.7185,-3.7233,-3.7253,-3.7249,-3.7337,-3.7323,-3.73,-3.7256,-3.7338,-3.7371,-3.7384,-3.7207,-3.7206,-3.7205,-3.7204,0,0,-3.6936,-3.6982,-3.6999,-3.7019,-3.7058,-3.7099,-3.7157,-3.7204,-3.7231,-3.7265,-3.7312,-3.738,-3.7358,-3.7384,-3.7382,-3.7421,-3.7502,-3.7392,-3.7393,-3.741,-3.7598,-3.7614,-3.763,-3.7491,-3.7494,-3.7496,-3.7595,0,-3.7038,-3.7141,-3.7141,-3.7235,-3.7283,-3.7263,-3.7313,-3.7341,-3.7352,-3.7392,-3.7403,-3.745,-3.7419,-3.7434,-3.7472,-3.7484,-3.7539,-3.7477,-3.7533,-3.7535,-3.7523,-3.7647,-3.7665,-3.7757,-3.7607,-3.761,-3.7611,0,-3.7172,-3.7211,-3.7309,-3.7339,-3.7359,-3.7404,-3.7445,-3.7486,-3.7516,-3.7521,-3.7549,-3.754,-3.7597,-3.7553,-3.763,-3.7587,-3.761,-3.762,-3.7623,-3.7627,-3.7577,-3.7653,-3.7786,-3.7799,-3.7632,-3.763,-3.7629,0,-3.7256,-3.7332,-3.74,-3.7419,-3.7456,-3.7487,-3.7504,-3.7532,-3.7559,-3.7595,-3.7612,-3.7655,-3.7678,-3.771,-3.7711,-3.7679,-3.7788,-3.7745,-3.7792,-3.7792,-3.7815,-3.7813,-3.7952,-3.7832,-3.7832,-3.7832,-3.7832,0,-3.737,-3.743,-3.7438,-3.748,-3.7546,-3.7545,-3.761,-3.7624,-3.7648,-3.7691,-3.7677,-3.7717,-3.7717,-3.7758,-3.776,-3.7822,-3.7833,-3.7836,-3.7836,-3.7837,-3.7836,-3.785,-3.7843,-3.7836,-3.7835,-3.7834,-3.7833,0,-3.7474,-3.7482,-3.7554,-3.7583,-3.7591,-3.7638,-3.7662,-3.7701,-3.7709,-3.7763,-3.7775,-3.7788,-3.7834,-3.7839,-3.7894,-3.7895,-3.7969,-3.7963,-3.7959,-3.7957,-3.8003,-3.7997,-3.8155,-3.8174,-3.8044,-3.8045,-3.8046,0,-3.7545,-3.7591,-3.7624,-3.7651,-3.767,-3.7715,-3.7742,-3.7742,-3.7771,-3.7808,-3.7842,-3.7887,-3.7923,-3.7998,-3.8011,-3.8052,-3.8045,-3.8098,-3.8051,-3.805,-3.8043,-3.804,-3.8043,-3.8106,-3.8107,-3.8109,-3.811,0,-3.767,-3.7671,-3.7711,-3.7753,-3.7786,-3.7819,-3.7849,-3.7872,-3.7876,-3.7909,-3.7956,-3.7984,-3.8039,-3.8083,-3.8123,-3.8139,-3.8124,-3.8124,-3.8137,-3.8137,-3.8132,-3.8133,-3.7981,-3.812,-3.8119,-3.8118,-3.8118,-3.8117,-3.7758,-3.7797,-3.7825,-3.787,-3.7893,-3.7921,-3.7958,-3.7971,-3.8011,-3.8055,-3.8053,-3.8105,-3.8132,-3.8184,-3.8202,-3.8241,-3.8224,-3.8242,-3.8247,-3.8251,-3.8255,-3.8127,-3.8249,-3.8248,-3.8248,-3.8248,-3.8248,0,-3.788,-3.7897,-3.7939,-3.7981,-3.8016,-3.8,-3.8032,-3.8062,-3.8108,-3.8135,-3.817,-3.8223,-3.8265,-3.8281,-3.8322,-3.835,-3.8345,-3.8361,-3.8358,-3.8361,-3.8269,-3.8253,-3.8365,-3.8365,-3.8365,-3.8365,-3.8365,-3.8365,-3.7947,-3.8011,-3.8016,-3.809,-3.8106,-3.8157,-3.8176,-3.8201,-3.8223,-3.8283,-3.8318,-3.8328,-3.835,-3.8392,-3.8429,-3.8432,-3.8447,-3.8466,-3.8466,-3.838,-3.8368,-3.8357,-3.8341,-3.847,-3.847,-3.8555,-3.8556,-3.8556]}]]